THORAD DELTA 1 DEB, 8160

Orbit data source: Space-Track

THORAD DELTA 1 DEB, 8160 is space debris in SSO originally from a launch on Fri, 15 Nov 1974 UTC launched from the Air Force Western Test Range (AFWTR). Debris objects in space refer to the collection of defunct objects orbiting the Earth. Examples of debris include non-operational satellites, rocket bodies, and fragments generated from explosions, collisions, or faulty payload assembly.

Loading next visibility...
Identifier
8160, 1974-089AA
Orbit
SSO
Last TLE update
23 hours ago
Origin
Manufacturer
Unknown
Mission
Spacecraft
Bus & Motor
Unknown
Mass
Unknown
Launch date (UTC)
1974-11-15 (51 years ago)
Launch vehicle
Unknown
Launch site
Air Force Western Test Range (AFWTR)
Object type
Payload
Rocket body
Debris
Shape & HBR
Unknown
Radar Cross Section
Small (<0.1 m²)

Expand to show TLE details & history

TLE from 23 hours ago
0 THORAD DELTA 1 DEB
1 08160U 74089AA  25183.31778435 -.00000012  00000-0  17776-3 0  9995
2 08160 101.7793 311.3845 0146098  49.8947 337.7839 12.63506885333675
Epoch: 2025-07-02T07:37Z
TLE epoch observation values (Epoch: 2025-07-02T07:37:36.567Z)
Latitude
26.45676°
Longitude
-89.54507°
Altitude
1,306.349 km
Speed
7.254 km/s
True Right ascension
20h 21m 49s
True Declination
26° 19' 47"
Sunlit
Object was in full shadow at epoch
Visualization orbit readout
Latitude
-22.72414°
Longitude
-77.68348°
Altitude
1,378.342 km
Speed
7.187 km/s
Apparent Right ascension
00h 01m 57s
Apparent Declination
-52° 48' 57"
Sunlit
Object is in full shadow
Visualization observer readout
Local Sidereal Time
17:55:53
Azimuth
134.839° SE
Elevation
-31.566°
Doppler factor
1
Orbital elements
Apogee altitude
1,519.758 km
Perigee altitude
1,292.308 km
Semi-major axis
7,784.17 km
Eccentricity
0.01461
Inclination
101.7793°
RAAN
311.3845°
Arg. of periapsis
49.8947°
True anomaly
Unknown
Mean anomaly
337.7839°
Eccentric anomaly
Unknown
Mean motion
3.16027 °/min
Orbital period
113.91 mins
BSTAR
0.00017776
Loading maneuver chart data...
Loading SW <> Apogee altitude chart data...
Loading historical data...
Loading historical data...
Loading historical data...
Loading historical data...
Loading historical data...
Loading historical data...
Loading historical data...

THORAD DELTA 1 DEB Visibility forecast

Observer location: undefined°, undefined°

Span
Click to sort rows by Start time (UTC) header in descending order
Start Az.
Max El. time (UTC)
Max El. Az.
Max El.
End time (UTC)
End Az.
8 mins2025-07-03 06:29:15.818Z86.955° E2025-07-03 06:33:15.818Z51.239° ENE18.089°2025-07-03 06:37:15.818Z16.252° NNE
13 mins2025-07-03 08:18:15.818Z160.887° S2025-07-03 08:24:15.818Z332.217° NNW44.953°2025-07-03 08:31:15.818Z342.565° N
6 mins2025-07-03 10:14:15.818Z245.73° WSW2025-07-03 10:17:15.818Z271.651° WNW14.565°2025-07-03 10:20:15.818Z296.744° NW
11 mins2025-07-03 20:15:15.818Z52.043° ENE2025-07-03 20:20:15.818Z101.339° ESE24.788°2025-07-03 20:26:15.818Z150.299° SSE
13 mins2025-07-03 22:06:15.818Z7.432° NNE2025-07-03 22:12:15.818Z287.143° WNW41.676°2025-07-03 22:19:15.818Z216.23° SW
5 mins2025-07-04 00:00:15.818Z330.37° NNW2025-07-04 00:02:15.818Z314.55° NW13.209°2025-07-04 00:05:15.818Z291.261° WNW
|